Back to catalog

STARLINK-4059

AliveCommunicationsVLEO
NORAD 53250·PAYLOAD·🇺🇸 United States

Launched Jul 24, 2022 from Cape Canaveral Space Force Station

Loading…

Next Passes (next 24 hours)

TLE

FreshSource: CelesTrak SupGP

Epoch: Sep 14, 2026, 13:38 UTC

1 53250C 22086J   26257.56854167 -.00025248  00000+0 -74592-3 0  2576
2 53250  53.1590  53.1015 0001062  90.7091 220.8378 15.34404775    11

Track STARLINK-4059 in real time with AllMySat

Download on the App Store